CAPE
746 781 630 701 562 554 538 560 532 552 383 421 323 310 532 490 497 360 174 206 354 635 645 692 915 1115 1546 1676 1603 1522 1380 1301 1264 1129 962 697 441 456 345 294 307 263 193 80 13 1 0 0 0 0 0 1 0 0 0 0 1 0 0 0 1 1 0 0 0 0 0 0 0 0 0 0 0 0 0 0 0 0 0 0 0 0 0 0 0
910 869 696 846 738 712 736 822 739 740 245 366 944 687 499 460 463 288 210 205 320 701 858 836 890 1583 1713 1600 1579 1455 1322 1264 1084 890 686 441 265 195 137 125 121 115 75 43 10 0 0 0 0 0 0 0 0 0 0 0 0 0 0 0 0 0 0 0 0 0 0 0 0 0 0 0 0 0 0 0 0 0 0 0 0 0 0 0 0
832 850 853 840 709 804 596 566 500 280 247 568 829 552 718 568 428 254 214 207 330 788 1095 1214 1661 1669 1567 1392 1404 1318 1221 1024 775 286 260 215 194 205 28 33 22 15 15 2 0 0 0 1 0 0 0 0 0 0 0 0 0 0 0 0 0 0 0 0 0 0 0 0 0 0 0 0 0 0 0 0 0 0 0 0 0 0 0 0 0
676 695 698 684 703 523 610 413 296 239 311 596 687 778 861 925 786 886 654 532 672 1099 1568 1859 1762 1366 1295 1227 1294 1217 861 436 377 285 196 248 152 134 47 3 7 1 0 0 0 0 0 0 0 0 0 0 0 1 2 2 1 0 0 0 0 0 0 0 0 0 0 0 0 0 0 0 0 0 0 0 0 0 0 0 0 0 0 0 0
1201 774 644 590 507 647 382 389 410 214 590 1077 1163 1255 1080 1060 1492 1463 1397 1519 1824 2070 1813 1843 1782 1492 1273 1216 1168 750 266 405 252 133 203 268 185 83 38 20 2 0 0 0 0 0 0 0 0 0 1 1 1 2 0 0 0 0 0 0 0 0 0 0 0 0 0 0 0 0 0 0 0 0 0 0 0 0 0 0 0 0 0 0 0
1321 1575 1443 1508 1479 1155 1215 1006 1164 1155 1285 1508 1366 1301 1092 1207 1712 1861 1889 1934 2046 2108 1776 1774 1568 1496 1407 1190 995 320 215 344 338 277 254 104 25 3 0 0 0 0 0 0 0 0 0 0 0 0 0 0 0 0 1 1 0 0 0 0 0 0 0 0 0 0 0 0 0 0 0 0 0 0 0 0 0 0 0 0 0 0 0 0 0
1700 1923 1817 1688 1534 1621 1676 1955 1845 1686 1597 1590 1704 1788 1898 1784 2156 1807 1851 1772 1698 1796 1554 1584 1542 1401 1307 1065 544 178 309 387 368 226 220 223 165 145 0 0 0 0 0 0 0 0 0 0 0 0 0 0 0 0 0 0 0 0 0 0 0 0 0 0 0 0 0 0 0 0 0 0 0 0 0 0 0 0 0 0 0 0 0 0 0
1719 1773 1822 1644 1694 1643 1850 1983 1868 1812 1671 1689 1864 1905 2071 2148 1975 1978 1800 1702 1490 1618 1552 1585 1449 1340 1133 815 447 390 407 426 347 56 26 62 230 85 0 0 0 0 0 0 0 0 0 0 0 0 0 0 1 0 0 0 0 0 0 0 0 0 0 0 0 0 0 0 0 0 0 0 0 0 0 0 0 0 0 0 0 0 0 0 0
1672 1865 1973 1814 1966 1826 1832 1858 1719 1712 1695 1694 1935 1983 2113 2209 1858 1614 1786 1771 1525 1373 1534 1487 1332 1242 984 625 350 437 456 328 280 252 190 223 227 6 25 0 0 0 0 0 0 0 0 0 0 0 0 0 0 0 0 0 0 0 0 0 0 0 0 0 0 0 0 0 0 0 0 0 0 0 0 0 0 0 0 0 0 0 0 0 0
1606 1754 1992 1867 1913 1826 1760 1754 1667 1788 1849 1949 2045 1937 2016 2196 1756 1434 1496 1743 1513 1467 1510 1242 1186 1078 669 227 465 428 413 380 316 132 12 170 204 195 81 0 0 0 0 0 0 0 0 0 0 0 0 0 0 0 0 0 0 0 0 0 0 0 0 0 0 0 0 0 0 0 0 0 0 0 0 0 0 0 0 0 0 1 0 0 0
1550 1740 1937 1799 1792 1780 1712 1805 1750 1826 1812 1502 1970 2022 1650 1868 1712 1410 1214 1398 1530 1528 1470 1209 1009 676 249 300 476 382 390 284 248 152 0 43 159 149 0 0 0 0 0 0 0 0 0 0 0 0 0 0 0 0 0 0 0 0 0 0 0 0 0 0 0 0 0 0 0 0 0 0 0 0 0 0 0 0 0 0 1 1 2 0 0
1610 1885 1939 1973 1902 1741 1733 1770 1698 1661 1609 1466 1898 1819 1525 1507 1363 1253 1105 1154 1540 1613 1431 1140 754 201 69 421 425 391 341 254 2 0 0 10 142 0 0 0 0 0 0 0 0 0 0 0 0 0 0 0 0 0 0 0 0 0 0 0 0 0 0 0 0 0 0 0 0 0 0 0 0 0 0 0 0 0 0 0 1 0 0 0 0
1576 1863 1855 1928 1830 1767 1918 1877 1854 1471 1669 1724 1787 1605 1366 1322 1154 1116 825 855 1091 1293 1153 770 435 125 312 333 319 298 285 219 189 104 48 0 0 0 0 0 0 0 0 0 0 0 0 0 0 0 0 0 0 0 0 0 0 0 0 0 0 0 0 0 0 0 0 0 0 0 0 0 0 0 0 0 0 0 0 0 0 0 1 1 0
1694 1733 1925 1923 1920 1780 1850 2024 1874 1468 1641 2033 1742 1510 1403 1200 1198 1070 998 924 941 1074 884 632 602 566 236 201 200 203 208 124 136 0 0 0 0 0 0 0 0 0 0 0 0 0 0 0 0 0 0 0 0 0 0 0 0 0 0 0 0 0 0 0 0 0 0 0 0 0 0 0 0 0 0 0 0 0 0 0 0 0 2 1 1
1750 1691 1901 1874 1864 1812 1966 2010 1671 1444 1700 2025 1859 1588 1450 1255 1158 1008 980 879 809 1025 843 803 619 489 374 305 192 108 23 3 0 0 0 0 0 0 0 0 0 0 0 0 0 0 0 0 0 0 0 0 0 0 0 0 0 0 0 0 0 0 0 0 0 0 0 0 0 0 0 0 0 0 0 0 0 0 0 0 0 0 0 0 1
1537 1533 1632 1721 1855 1770 2002 1876 1838 1504 1634 2236 1922 1590 1452 1207 1199 1019 902 912 955 1017 961 896 404 363 422 282 302 145 14 0 0 0 0 0 0 0 0 0 0 0 0 0 0 0 0 0 0 0 0 0 0 0 0 0 0 0 0 0 0 0 0 0 0 0 0 0 0 0 0 0 0 0 0 0 0 0 0 0 0 0 0 0 0
1689 1612 1494 1782 1913 1787 2099 2024 1552 1556 1544 1886 2164 1655 1498 1313 1044 929 953 995 937 881 900 830 796 312 312 318 151 156 232 57 0 0 0 0 0 0 0 0 0 0 0 0 0 0 0 0 0 0 0 0 0 0 0 0 0 0 0 0 0 0 0 0 0 0 0 0 0 0 0 0 0 0 0 0 0 0 0 0 0 0 0 0 0
1688 1613 1603 1642 1798 1816 2157 2071 1940 1701 1554 1703 2074 1863 1514 1443 1229 1032 866 751 807 794 749 652 644 552 767 459 1055 868 674 175 63 81 0 0 0 0 0 0 0 0 0 0 0 0 0 0 0 0 0 0 0 0 0 0 0 0 0 0 0 0 0 0 0 0 0 0 0 0 0 0 0 0 0 0 0 0 0 0 0 0 0 0 0
1775 1567 1610 1685 1800 1879 2072 2144 1912 1759 1578 1662 1917 1892 1556 1431 1298 1108 952 734 650 718 571 674 532 287 453 582 616 484 320 200 179 89 1 0 0 0 0 0 0 0 0 0 0 0 0 0 0 0 0 0 0 0 0 0 0 0 0 0 0 0 0 0 0 0 0 0 0 0 0 0 0 0 0 0 0 0 0 0 0 0 0 0 1
1802 1387 1702 1750 1691 1861 2112 2075 1806 1877 1793 1680 1989 1829 1703 1514 1235 1090 816 659 723 682 886 488 568 468 352 371 364 253 371 389 406 301 183 41 0 0 0 0 11 52 0 0 0 0 0 0 0 0 0 0 0 0 0 0 0 0 0 0 0 0 0 0 0 0 0 0 0 0 0 0 0 0 0 0 0 0 0 0 0 0 0 0 0
1652 1746 1672 1853 1738 1913 2110 1857 1771 1909 1835 1772 1799 1664 1570 1533 1006 1015 968 963 836 761 559 602 538 508 298 206 232 260 284 342 373 379 299 415 186 0 0 0 0 0 0 0 0 0 0 0 0 0 0 0 0 0 0 0 0 0 0 0 0 0 0 0 0 0 0 0 0 0 0 0 0 0 0 0 0 0 0 0 0 0 0 0 0
1849 1667 1702 1775 1770 1919 1993 1846 1874 1792 1671 1625 1789 1596 1357 1249 1306 1088 1141 1256 1061 873 708 661 560 530 545 451 359 356 302 260 257 283 306 325 335 3 1 0 0 0 0 0 0 0 0 0 0 0 0 0 0 0 0 0 0 0 0 0 0 0 0 0 0 0 0 0 0 0 0 0 0 0 0 0 0 0 0 0 0 0 0 0 0
1917 1897 1841 1868 1840 1827 2066 2053 1897 1816 1556 1391 1680 1560 1368 1266 1068 1104 1093 915 840 795 819 645 679 619 586 524 497 319 324 304 340 281 250 312 224 124 20 0 0 0 0 0 0 0 0 0 0 0 0 0 0 0 0 0 0 0 0 0 0 0 0 0 0 0 0 0 0 0 0 0 0 0 0 0 0 0 0 0 0 0 0 0 0
1855 1893 1896 1848 1818 1772 1852 2014 1915 1841 1638 1433 1480 1428 945 908 967 1078 840 818 710 732 788 824 792 678 699 607 562 474 431 380 376 364 377 297 297 273 9 6 0 0 0 0 0 0 0 0 0 0 0 0 0 0 0 0 0 0 0 0 0 0 0 0 0 0 0 0 0 0 0 0 0 0 0 0 0 0 0 0 0 0 0 0 0
2035 1946 1957 1841 1798 1850 1896 1975 1971 1615 1694 1480 1317 1151 931 1114 896 879 755 879 893 904 949 924 870 809 697 681 515 440 429 406 428 438 370 322 341 166 8 0 0 0 0 0 0 0 0 0 0 0 0 0 0 0 0 0 0 0 0 0 0 0 0 0 0 0 0 0 0 0 0 0 0 0 0 0 0 0 0 0 0 0 0 0 0
1909 1969 1879 1824 1782 1796 1935 2111 1934 1702 1594 1408 1175 1163 1034 1006 962 917 845 790 692 732 807 784 672 670 708 584 604 494 469 456 408 406 347 280 190 74 18 2 0 0 0 0 0 0 0 0 0 0 0 0 0 0 0 0 0 0 0 0 0 0 0 0 0 0 0 0 0 0 0 0 0 0 0 0 0 0 0 0 0 0 0 0 0
1814 1812 1659 1871 1784 1850 2164 2270 1951 1716 1439 1307 1198 1094 1078 965 778 774 595 452 373 449 545 524 585 676 686 635 538 483 394 379 340 355 269 214 104 46 63 4 0 0 0 0 0 4 7 0 0 0 0 0 0 0 0 0 0 0 0 0 0 0 0 0 0 0 0 0 0 0 0 0 0 0 0 0 0 0 0 0 0 0 0 0 0
1660 1649 1880 1853 1934 1914 2122 2121 1879 1582 1372 1244 1174 1024 964 800 650 425 353 280 315 180 206 270 416 482 556 462 351 245 256 230 159 178 130 54 24 35 66 2 0 0 0 0 2 7 0 0 0 0 0 0 0 0 0 0 0 0 0 0 0 0 0 0 0 0 0 0 0 0 0 0 0 0 0 0 0 0 0 0 0 0 0 0 0
1990 1869 1824 1962 1836 1976 2120 1857 1528 1560 1427 1198 1094 885 584 532 412 341 253 123 65 159 176 106 91 111 144 172 147 84 97 139 88 12 7 7 2 0 0 0 0 0 0 1 0 0 6 0 0 0 0 0 0 0 0 0 0 0 0 0 0 0 0 0 0 0 0 0 0 0 0 0 0 0 0 0 0 0 0 0 0 0 0 0 0
2108 2055 1770 1910 1834 1817 2000 1587 1616 1519 1266 1095 926 611 640 641 463 318 280 243 18 24 38 20 20 80 66 68 29 31 20 4 3 0 0 0 0 0 0 0 0 11 15 7 0 0 0 0 0 0 0 0 0 0 0 0 0 0 0 0 0 0 0 0 0 0 0 0 0 0 0 0 0 0 0 0 0 0 0 0 0 0 0 0 0
2122 2222 1920 1694 1838 1815 1713 1516 1519 1341 1143 992 660 693 649 583 494 321 301 272 100 1 0 0 0 0 0 0 0 0 0 0 0 0 0 0 0 0 0 0 0 2 22 0 0 4 0 0 0 0 0 0 0 0 0 0 0 0 0 0 0 0 0 0 0 0 0 0 0 0 0 0 0 0 0 0 0 0 0 0 0 0 0 0 0
2329 2231 1837 1451 1852 1560 1532 1428 1356 1209 833 692 750 731 616 540 478 331 313 279 0 0 0 0 0 0 0 0 0 0 0 0 0 0 0 0 0 0 0 0 0 0 12 0 5 20 3 0 0 0 0 0 0 0 0 0 0 0 0 0 0 0 0 0 0 0 0 0 0 0 0 0 0 0 0 0 0 0 0 0 0 0 0 0 0
2241 2118 1908 2009 1885 1782 1662 1365 1061 925 798 749 774 743 634 531 475 324 328 291 0 0 0 0 0 0 0 0 0 0 0 0 0 0 0 0 0 0 0 0 0 0 0 1 14 18 0 0 0 0 0 0 0 0 0 0 0 0 0 0 0 0 0 0 0 0 0 0 0 0 0 0 0 0 0 0 0 0 0 0 0 0 0 0 0
2241 2056 2032 1871 1783 1691 1551 1031 1134 982 846 794 805 747 662 538 432 333 313 26 0 0 0 0 0 0 0 0 0 0 0 0 0 0 0 0 0 0 0 1 0 0 0 15 21 4 0 0 0 0 0 0 0 0 0 0 0 0 0 0 0 0 0 0 0 0 0 0 0 0 0 0 0 0 0 0 0 0 0 0 0 0 0 0 0
2210 2202 2030 1756 1626 1573 1409 1039 1182 1037 898 852 793 754 639 477 350 319 201 0 0 0 0 0 0 0 0 0 0 0 0 0 0 0 0 0 0 0 0 0 0 0 5 39 24 13 2 0 0 0 0 0 0 0 0 0 0 0 0 0 0 0 0 0 0 0 0 0 0 0 0 0 0 0 0 0 0 0 0 0 0 0 0 0 0
2202 2121 1987 1667 1502 1450 1254 1099 1230 1104 974 881 806 751 570 407 322 312 0 0 0 0 0 0 0 0 0 0 0 0 0 0 0 0 0 0 0 0 0 0 0 0 44 52 1 28 0 0 0 0 0 0 0 0 0 0 0 0 0 0 0 0 0 0 0 0 0 0 0 0 0 0 0 0 0 0 0 0 0 0 0 0 0 0 0
2166 2035 1787 1461 1420 1306 1078 1185 1264 1164 1011 875 798 658 514 382 351 226 0 0 0 0 0 0 0 0 0 0 0 0 0 0 0 0 0 0 0 0 0 0 0 11 47 0 0 0 0 0 0 0 0 0 0 0 0 0 0 0 0 0 0 0 0 0 0 0 0 0 0 0 0 0 0 0 0 0 0 0 0 0 0 0 0 0 0
2060 1896 1529 1394 1179 1107 1102 1226 1285 1159 1005 844 776 677 524 431 433 259 0 0 0 0 0 0 0 0 0 0 0 0 0 0 0 0 0 0 0 0 0 0 4 31 0 13 0 0 0 0 0 0 0 0 0 0 0 0 0 0 0 0 0 0 0 0 0 0 0 0 0 0 0 0 0 0 0 0 0 0 0 0 0 0 0 0 0
1947 1687 1504 1396 1240 1144 1120 1251 1283 1150 1043 844 754 605 490 502 513 423 276 0 0 0 0 0 0 0 0 0 0 0 0 0 0 0 0 0 0 0 0 0 4 16 1 0 0 0 0 0 0 0 0 0 0 0 0 0 0 0 0 0 0 0 0 0 0 0 0 0 0 0 0 0 0 0 0 0 0 0 0 0 0 0 0 0 0
1849 1509 1489 1353 1302 1180 1125 1290 1324 1170 1084 920 775 590 460 479 540 519 445 75 0 0 0 0 0 0 0 0 0 0 0 0 0 0 0 0 0 0 0 0 0 15 25 8 0 0 0 0 0 0 0 0 0 0 0 0 0 0 0 0 0 0 0 0 0 0 0 0 0 0 0 0 0 0 0 0 0 0 0 0 0 0 0 0 0
1620 1468 1438 1429 1302 1206 1141 1304 1334 1243 1096 929 804 596 442 447 496 552 546 357 200 0 0 0 0 0 0 0 0 0 0 0 0 0 0 0 0 0 0 0 0 7 8 0 0 0 0 0 0 0 0 0 0 0 0 0 0 0 0 0 0 0 0 0 0 0 0 0 0 0 0 0 0 0 0 0 0 0 0 0 0 0 0 0 0
1590 1448 1502 1452 1301 1224 1102 1268 1324 1300 1173 982 828 719 485 441 516 555 510 348 246 68 0 0 0 0 0 0 0 0 0 0 0 0 0 0 0 0 1 0 0 0 0 0 0 0 0 0 0 0 0 0 0 0 0 0 0 0 0 0 0 0 0 0 0 0 0 0 0 0 0 0 0 0 0 0 0 0 0 0 0 0 0 0 0
1438 1502 1522 1447 1318 1185 1126 1294 1330 1313 1183 1018 743 684 529 502 527 487 424 322 234 126 0 0 0 0 0 0 0 0 0 0 0 0 0 0 0 15 17 8 1 0 0 0 0 0 0 0 0 0 0 0 0 0 0 0 0 0 0 0 0 0 0 0 0 0 0 0 0 0 0 0 0 0 0 0 0 0 0 0 0 0 0 0 0
1525 1502 1550 1481 1308 1193 1154 1272 1322 1315 1182 1057 712 570 507 563 538 413 316 307 229 64 0 0 0 0 0 0 0 0 0 0 0 0 0 0 0 19 20 14 4 0 0 0 2 0 0 0 0 0 0 0 0 0 0 0 0 0 0 0 0 0 0 0 0 0 0 0 0 0 0 0 0 0 0 0 0 0 0 0 0 0 0 0 0
1622 1535 1614 1464 1315 1218 1245 1311 1331 1319 1176 1051 750 539 480 542 498 362 314 316 223 20 0 0 0 0 0 0 0 0 0 0 0 0 0 0 3 18 27 18 1 0 0 0 0 0 0 0 0 0 0 0 0 0 0 0 0 0 0 0 0 0 0 0 0 0 0 0 0 0 0 0 0 0 0 0 0 0 0 0 0 0 0 0 0
1725 1618 1552 1391 1311 1233 1284 1418 1428 1391 1214 1008 723 547 459 497 408 326 325 360 279 200 0 0 0 90 0 0 0 0 0 0 0 0 0 14 8 3 26 2 0 0 0 0 0 0 0 0 0 0 0 0 0 0 0 0 0 0 0 0 0 0 0 0 0 0 0 0 0 0 0 0 0 0 0 0 0 0 0 0 0 0 0 0 0
1719 1664 1641 1550 1327 1264 1347 1454 1532 1448 1205 942 672 551 486 495 362 319 365 423 417 302 187 163 148 149 20 0 0 0 30 166 136 110 23 18 3 22 13 0 0 0 0 0 0 0 0 0 0 0 0 0 0 0 0 0 0 0 0 0 0 0 0 0 0 0 0 0 0 0 0 0 0 0 0 0 0 0 0 0 0 0 0 0 0
1754 1646 1635 1582 1276 1316 1403 1531 1564 1427 1179 934 703 595 499 476 371 340 357 424 462 384 260 183 163 148 98 0 0 0 171 175 123 11 34 37 39 15 0 0 0 0 0 0 0 0 41 34 0 0 0 6 4 0 0 0 0 0 0 0 0 0 0 0 0 0 0 0 0 0 0 0 0 0 0 0 0 0 0 0 0 0 0 0 0
1677 1678 1695 1617 1300 1135 1416 1468 1461 1326 1083 933 730 654 541 392 368 311 317 359 404 428 355 232 174 148 143 97 0 0 161 178 109 45 51 46 36 4 0 0 0 0 0 0 0 0 0 0 0 0 0 0 0 0 0 0 0 0 0 0 0 0 0 0 0 0 0 0 0 0 0 0 0 0 0 0 0 0 0 0 0 0 0 0 0
1633 1689 1693 1631 1320 1078 1205 1218 1125 1172 1093 962 774 669 574 473 409 351 318 284 390 443 420 294 205 168 149 125 22 0 171 65 81 96 84 70 35 0 0 0 0 0 0 0 1 0 0 0 0 0 0 0 0 0 0 0 0 0 0 0 0 0 0 0 0 0 0 0 1 0 0 0 0 0 0 0 0 0 0 0 0 0 0 0 0
1608 1687 1654 1618 1411 1152 1140 1091 1080 1055 1144 1024 818 691 643 583 480 393 346 386 412 452 446 357 260 218 199 159 138 140 173 203 98 101 96 76 10 0 0 0 0 0 0 0 0 0 0 0 0 0 0 0 0 0 0 0 0 0 0 0 0 0 0 0 0 0 0 0 9 0 0 0 0 0 0 0 0 0 0 0 0 0 0 0 0
Wind_Speed
19 19 19 18 18 18 18 18 19 20 22 20 22 22 21 20 20 18 18 18 20 20 20 20 19 20 22 24 23 22 21 21 20 22 22 23 23 26 28 29 28 29 31 nan nan nan nan nan nan nan nan nan nan nan nan nan nan nan nan nan nan nan nan nan nan nan nan nan nan nan nan nan nan nan nan nan nan nan nan nan nan nan nan nan nan
20 20 19 19 18 17 17 18 18 19 21 22 21 22 21 20 20 18 19 18 20 21 20 20 20 22 23 24 23 21 20 19 20 22 23 24 25 26 29 28 29 30 nan nan nan nan nan nan nan nan nan nan nan nan nan nan nan nan nan nan nan nan nan nan nan nan nan nan nan nan nan nan nan nan nan nan nan nan nan nan nan nan nan nan nan
20 20 19 19 18 17 17 18 18 20 20 21 22 21 20 20 19 19 19 20 20 22 19 20 21 23 24 25 23 21 20 20 20 22 23 24 24 24 nan nan nan nan nan nan nan nan nan nan nan nan nan nan nan nan nan nan nan nan nan nan nan nan nan nan nan nan nan nan nan nan nan nan nan nan nan nan nan nan nan nan nan nan nan nan nan
20 20 20 19 18 16 17 18 18 20 20 21 22 21 20 19 18 18 18 19 21 21 20 20 21 22 23 24 23 22 23 23 21 17 23 23 22 22 nan nan nan nan nan nan nan nan nan nan nan nan nan nan nan nan nan nan nan nan nan nan nan nan nan nan nan nan nan nan nan nan nan nan nan nan nan nan nan nan nan nan nan nan nan nan nan
19 19 20 19 18 16 17 18 18 19 20 21 22 21 19 20 19 19 20 21 22 23 22 22 21 22 22 25 23 24 26 27 22 21 23 22 20 nan nan nan nan nan nan nan nan nan nan nan nan nan nan nan nan nan nan nan nan nan nan nan nan nan nan nan nan nan nan nan nan nan nan nan nan nan nan nan nan nan nan nan nan nan nan nan nan
20 20 19 20 18 17 17 18 18 20 20 21 22 21 20 20 20 20 22 22 23 24 23 23 22 23 23 24 24 26 26 27 25 23 22 22 nan nan nan nan nan nan nan nan nan nan nan nan nan nan nan nan nan nan nan nan nan nan nan nan nan nan nan nan nan nan nan nan nan nan nan nan nan nan nan nan nan nan nan nan nan nan nan nan nan
21 21 21 20 20 18 18 18 18 18 19 20 20 21 20 21 22 21 23 22 24 24 24 25 25 24 25 24 26 26 25 24 25 24 23 23 20 21 nan nan nan nan nan nan nan nan nan nan nan nan nan nan nan nan nan nan nan nan nan nan nan nan nan nan nan nan nan nan nan nan nan nan nan nan nan nan nan nan nan nan nan nan nan nan nan
21 21 21 21 20 19 18 18 18 17 17 19 20 20 21 22 23 23 24 23 24 25 25 26 26 26 26 25 26 26 26 25 24 nan nan nan 21 nan nan nan nan nan nan nan nan nan nan nan nan nan nan nan nan nan nan nan nan nan nan nan nan nan nan nan nan nan nan nan nan nan nan nan nan nan nan nan nan nan nan nan nan nan nan nan nan
22 22 21 21 19 19 20 19 18 16 16 18 18 19 22 23 24 24 24 24 24 25 27 27 27 28 27 27 28 27 25 23 23 23 22 21 20 nan nan nan nan nan nan nan nan nan nan nan nan nan nan nan nan nan nan nan nan nan nan nan nan nan nan nan nan nan nan nan nan nan nan nan nan nan nan nan nan nan nan nan nan nan nan nan nan
22 23 22 21 20 20 21 20 18 17 17 17 17 18 21 23 25 25 25 24 25 25 28 29 28 29 29 29 27 26 25 23 22 22 nan 20 18 18 nan nan nan nan nan nan nan nan nan nan nan nan nan nan nan nan nan nan nan nan nan nan nan nan nan nan nan nan nan nan nan nan nan nan nan nan nan nan nan nan nan nan nan nan nan nan nan
22 23 22 22 22 21 22 21 18 18 17 17 17 18 21 24 25 26 26 25 25 25 28 29 29 29 29 28 27 26 24 22 21 20 nan nan 18 18 nan nan nan nan nan nan nan nan nan nan nan nan nan nan nan nan nan nan nan nan nan nan nan nan nan nan nan nan nan nan nan nan nan nan nan nan nan nan nan nan nan nan nan nan nan nan nan
22 23 24 23 23 23 23 22 20 19 18 17 17 19 21 24 26 27 28 27 26 26 28 29 29 29 nan 28 27 25 23 21 nan nan nan nan 18 nan nan nan nan nan nan nan nan nan nan nan nan nan nan nan nan nan nan nan nan nan nan nan nan nan nan nan nan nan nan nan nan nan nan nan nan nan nan nan nan nan nan nan nan nan nan nan nan
23 24 24 25 24 24 24 22 21 20 18 16 18 19 21 23 25 26 28 27 28 27 28 29 30 29 27 27 26 24 23 20 20 19 nan nan nan nan nan nan nan nan nan nan nan nan nan nan nan nan nan nan nan nan nan nan nan nan nan nan nan nan nan nan nan nan nan nan nan nan nan nan nan nan nan nan nan nan nan nan nan nan nan nan nan
24 25 25 26 26 26 25 23 21 20 19 18 18 19 22 24 26 27 26 27 27 28 29 30 28 28 28 25 24 23 21 20 19 nan nan nan nan nan nan nan nan nan nan nan nan nan nan nan nan nan nan nan nan nan nan nan nan nan nan nan nan nan nan nan nan nan nan nan nan nan nan nan nan nan nan nan nan nan nan nan nan nan nan nan nan
26 27 26 27 28 27 26 24 22 21 21 19 19 20 22 24 26 26 27 26 26 27 30 26 25 26 26 26 23 22 nan nan nan nan nan nan nan nan nan nan nan nan nan nan nan nan nan nan nan nan nan nan nan nan nan nan nan nan nan nan nan nan nan nan nan nan nan nan nan nan nan nan nan nan nan nan nan nan nan nan nan nan nan nan nan
28 29 28 28 28 29 27 25 23 21 22 21 20 20 21 23 25 25 26 27 27 28 27 25 23 27 26 22 21 20 nan nan nan nan nan nan nan nan nan nan nan nan nan nan nan nan nan nan nan nan nan nan nan nan nan nan nan nan nan nan nan nan nan nan nan nan nan nan nan nan nan nan nan nan nan nan nan nan nan nan nan nan nan nan nan
27 29 30 29 29 29 28 26 24 22 22 22 21 20 21 23 24 25 26 25 27 27 27 25 22 22 20 22 24 20 15 nan nan nan nan nan nan nan nan nan nan nan nan nan nan nan nan nan nan nan nan nan nan nan nan nan nan nan nan nan nan nan nan nan nan nan nan nan nan nan nan nan nan nan nan nan nan nan nan nan nan nan nan nan nan
28 30 31 30 29 29 27 25 24 23 22 22 21 20 21 23 24 23 24 24 24 27 26 25 22 20 18 16 18 19 20 25 nan nan nan nan nan nan nan nan nan nan nan nan nan nan nan nan nan nan nan nan nan nan nan nan nan nan nan nan nan nan nan nan nan nan nan nan nan nan nan nan nan nan nan nan nan nan nan nan nan nan nan nan nan
29 30 31 31 30 28 27 24 23 23 23 20 19 19 21 22 23 22 22 23 25 25 26 25 23 19 18 17 16 17 17 19 18 nan nan nan nan nan nan nan nan nan nan nan nan nan nan nan nan nan nan nan nan nan nan nan nan nan nan nan nan nan nan nan nan nan nan nan nan nan nan nan nan nan nan nan nan nan nan nan nan nan nan nan nan
30 30 31 31 30 28 25 24 23 23 22 19 18 19 20 21 21 21 21 23 24 24 25 24 22 21 19 18 18 17 16 15 13 13 13 nan nan nan nan nan nan nan nan nan nan nan nan nan nan nan nan nan nan nan nan nan nan nan nan nan nan nan nan nan nan nan nan nan nan nan nan nan nan nan nan nan nan nan nan nan nan nan nan nan nan
31 31 30 30 30 27 24 23 22 22 20 17 18 20 21 21 21 21 22 22 23 23 22 23 22 18 22 19 18 18 17 16 14 15 14 14 17 nan nan nan nan nan nan nan nan nan nan nan nan nan nan nan nan nan nan nan nan nan nan nan nan nan nan nan nan nan nan nan nan nan nan nan nan nan nan nan nan nan nan nan nan nan nan nan nan
31 31 30 30 30 26 23 22 22 21 19 18 19 20 20 20 21 20 21 21 21 22 21 20 20 19 19 19 19 19 17 16 16 16 15 15 14 nan nan nan nan nan nan nan nan nan nan nan nan nan nan nan nan nan nan nan nan nan nan nan nan nan nan nan nan nan nan nan nan nan nan nan nan nan nan nan nan nan nan nan nan nan nan nan nan
31 30 30 29 28 25 23 22 21 20 18 18 19 20 20 20 20 20 20 20 21 21 20 18 18 19 19 20 20 20 19 17 18 18 16 17 19 17 nan nan nan nan nan nan nan nan nan nan nan nan nan nan nan nan nan nan nan nan nan nan nan nan nan nan nan nan nan nan nan nan nan nan nan nan nan nan nan nan nan nan nan nan nan nan nan
31 30 29 28 27 25 23 22 22 21 19 18 19 19 20 20 20 20 20 20 19 19 19 18 18 18 20 21 21 19 18 17 17 18 18 17 18 19 nan nan nan nan nan nan nan nan nan nan nan nan nan nan nan nan nan nan nan nan nan nan nan nan nan nan nan nan nan nan nan nan nan nan nan nan nan nan nan nan nan nan nan nan nan nan nan
31 30 29 29 26 24 23 23 23 21 18 17 18 20 20 19 19 18 19 20 21 20 19 20 20 20 21 21 20 21 19 18 18 17 18 18 18 20 nan nan nan nan nan nan nan nan nan nan nan nan nan nan nan nan nan nan nan nan nan nan nan nan nan nan nan nan nan nan nan nan nan nan nan nan nan nan nan nan nan nan nan nan nan nan nan
30 29 29 28 25 24 23 23 24 23 20 19 20 20 20 19 19 18 19 20 19 20 19 19 20 20 20 22 22 21 20 19 18 17 18 19 20 nan nan nan nan nan nan nan nan nan nan nan nan nan nan nan nan nan nan nan nan nan nan nan nan nan nan nan nan nan nan nan nan nan nan nan nan nan nan nan nan nan nan nan nan nan nan nan nan
29 29 28 27 26 25 24 24 25 24 22 21 21 21 20 17 17 18 18 19 20 20 21 21 21 22 22 22 22 21 21 21 20 18 19 20 20 nan nan nan nan nan nan nan nan nan nan nan nan nan nan nan nan nan nan nan nan nan nan nan nan nan nan nan nan nan nan nan nan nan nan nan nan nan nan nan nan nan nan nan nan nan nan nan nan
27 28 28 27 27 26 26 25 25 24 22 22 22 21 21 18 17 18 19 20 20 21 20 22 22 22 22 22 21 20 21 20 20 20 19 nan nan nan nan nan nan nan nan nan nan nan nan nan nan nan nan nan nan nan nan nan nan nan nan nan nan nan nan nan nan nan nan nan nan nan nan nan nan nan nan nan nan nan nan nan nan nan nan nan nan
29 28 28 27 27 27 27 26 25 24 23 22 22 21 22 19 18 20 20 22 nan 22 21 21 nan 22 22 22 21 nan nan 21 nan nan nan nan nan nan nan nan nan nan nan nan nan nan nan nan nan nan nan nan nan nan nan nan nan nan nan nan nan nan nan nan nan nan nan nan nan nan nan nan nan nan nan nan nan nan nan nan nan nan nan nan nan
29 28 28 28 27 29 28 26 25 24 23 22 22 22 23 20 19 20 21 22 nan nan nan nan nan nan nan nan nan nan nan nan nan nan nan nan nan nan nan nan nan nan nan nan nan nan nan nan nan nan nan nan nan nan nan nan nan nan nan nan nan nan nan nan nan nan nan nan nan nan nan nan nan nan nan nan nan nan nan nan nan nan nan nan nan
29 28 28 27 27 30 29 27 26 25 24 22 23 23 22 20 20 19 22 22 nan nan nan nan nan nan nan nan nan nan nan nan nan nan nan nan nan nan nan nan nan nan nan nan nan nan nan nan nan nan nan nan nan nan nan nan nan nan nan nan nan nan nan nan nan nan nan nan nan nan nan nan nan nan nan nan nan nan nan nan nan nan nan nan nan
30 29 28 28 28 32 31 28 27 26 25 23 24 24 22 21 21 19 21 22 nan nan nan nan nan nan nan nan nan nan nan nan nan nan nan nan nan nan nan nan nan nan nan nan nan nan nan nan nan nan nan nan nan nan nan nan nan nan nan nan nan nan nan nan nan nan nan nan nan nan nan nan nan nan nan nan nan nan nan nan nan nan nan nan nan
30 29 29 31 30 34 34 31 29 28 25 25 24 23 22 21 20 19 21 22 nan nan nan nan nan nan nan nan nan nan nan nan nan nan nan nan nan nan nan nan nan nan nan nan nan nan nan nan nan nan nan nan nan nan nan nan nan nan nan nan nan nan nan nan nan nan nan nan nan nan nan nan nan nan nan nan nan nan nan nan nan nan nan nan nan
31 30 32 32 31 33 34 33 29 28 26 25 25 23 22 21 21 19 21 nan nan nan nan nan nan nan nan nan nan nan nan nan nan nan nan nan nan nan nan nan nan nan nan nan nan nan nan nan nan nan nan nan nan nan nan nan nan nan nan nan nan nan nan nan nan nan nan nan nan nan nan nan nan nan nan nan nan nan nan nan nan nan nan nan nan
33 32 33 33 32 33 35 33 30 27 26 26 24 22 21 22 21 21 21 nan nan nan nan nan nan nan nan nan nan nan nan nan nan nan nan nan nan nan nan nan nan nan nan nan nan nan nan nan nan nan nan nan nan nan nan nan nan nan nan nan nan nan nan nan nan nan nan nan nan nan nan nan nan nan nan nan nan nan nan nan nan nan nan nan nan
36 34 34 35 32 33 36 34 31 28 26 26 24 22 21 21 21 22 nan nan nan nan nan nan nan nan nan nan nan nan nan nan nan nan nan nan nan nan nan nan nan nan nan nan nan nan nan nan nan nan nan nan nan nan nan nan nan nan nan nan nan nan nan nan nan nan nan nan nan nan nan nan nan nan nan nan nan nan nan nan nan nan nan nan nan
38 37 35 35 32 33 36 35 32 29 27 26 24 22 21 21 21 22 nan nan nan nan nan nan nan nan nan nan nan nan nan nan nan nan nan nan nan nan nan nan nan nan nan nan nan nan nan nan nan nan nan nan nan nan nan nan nan nan nan nan nan nan nan nan nan nan nan nan nan nan nan nan nan nan nan nan nan nan nan nan nan nan nan nan nan
39 38 37 35 32 32 36 36 32 29 26 26 24 23 23 22 21 22 nan nan nan nan nan nan nan nan nan nan nan nan nan nan nan nan nan nan nan nan nan nan nan nan nan nan nan nan nan nan nan nan nan nan nan nan nan nan nan nan nan nan nan nan nan nan nan nan nan nan nan nan nan nan nan nan nan nan nan nan nan nan nan nan nan nan nan
38 38 36 35 33 33 35 35 32 28 26 26 25 24 23 23 23 24 23 nan nan nan nan nan nan nan nan nan nan nan nan nan nan nan nan nan nan nan nan nan nan nan nan nan nan nan nan nan nan nan nan nan nan nan nan nan nan nan nan nan nan nan nan nan nan nan nan nan nan nan nan nan nan nan nan nan nan nan nan nan nan nan nan nan nan
34 36 36 35 35 34 36 36 32 28 26 26 25 25 24 24 24 24 24 nan nan nan nan nan nan nan nan nan nan nan nan nan nan nan nan nan nan nan nan nan nan nan nan nan nan nan nan nan nan nan nan nan nan nan nan nan nan nan nan nan nan nan nan nan nan nan nan nan nan nan nan nan nan nan nan nan nan nan nan nan nan nan nan nan nan
32 35 36 36 36 35 36 36 32 28 27 27 26 25 24 24 24 25 25 24 25 nan nan nan nan nan nan nan nan nan nan nan nan nan nan nan nan nan nan nan nan nan nan nan nan nan nan nan nan nan nan nan nan nan nan nan nan nan nan nan nan nan nan nan nan nan nan nan nan nan nan nan nan nan nan nan nan nan nan nan nan nan nan nan nan
32 36 37 37 37 36 36 36 33 30 27 26 28 29 26 24 25 25 25 25 26 nan nan nan nan nan nan nan nan nan nan nan nan nan nan nan nan nan nan nan nan nan nan nan nan nan nan nan nan nan nan nan nan nan nan nan nan nan nan nan nan nan nan nan nan nan nan nan nan nan nan nan nan nan nan nan nan nan nan nan nan nan nan nan nan
31 36 37 38 37 36 37 37 35 30 28 28 33 29 27 26 26 26 27 27 27 28 nan nan nan nan nan nan nan nan nan nan nan nan nan nan nan nan nan nan nan nan nan nan nan nan nan nan nan nan nan nan nan nan nan nan nan nan nan nan nan nan nan nan nan nan nan nan nan nan nan nan nan nan nan nan nan nan nan nan nan nan nan nan nan
31 34 38 38 38 38 37 36 35 31 27 32 34 31 28 28 27 28 28 28 28 nan nan nan nan nan nan nan nan nan nan nan nan nan nan nan nan nan nan nan nan nan nan nan nan nan nan nan nan nan nan nan nan nan nan nan nan nan nan nan nan nan nan nan nan nan nan nan nan nan nan nan nan nan nan nan nan nan nan nan nan nan nan nan nan
33 33 38 39 38 38 37 37 35 32 28 35 34 33 30 29 29 29 29 30 30 nan nan nan nan nan nan nan nan nan nan nan nan nan nan nan nan nan nan nan nan nan nan nan nan nan nan nan nan nan nan nan nan nan nan nan nan nan nan nan nan nan nan nan nan nan nan nan nan nan nan nan nan nan nan nan nan nan nan nan nan nan nan nan nan
33 33 38 40 39 38 37 37 35 33 30 36 35 34 31 29 30 29 30 32 31 31 nan nan nan nan nan nan nan nan nan nan nan nan nan nan nan nan nan nan nan nan nan nan nan nan nan nan nan nan nan nan nan nan nan nan nan nan nan nan nan nan nan nan nan nan nan nan nan nan nan nan nan nan nan nan nan nan nan nan nan nan nan nan nan
32 33 37 40 40 39 39 39 36 34 33 39 37 35 32 29 30 29 31 33 32 33 34 36 37 37 nan nan nan nan nan 34 31 32 nan nan nan nan nan nan nan nan nan nan nan nan nan nan nan nan nan nan nan nan nan nan nan nan nan nan nan nan nan nan nan nan nan nan nan nan nan nan nan nan nan nan nan nan nan nan nan nan nan nan nan
34 34 35 40 41 40 39 40 37 34 36 40 37 36 33 29 31 29 32 34 34 35 36 38 39 38 nan nan nan nan 34 33 33 nan nan nan nan nan nan nan nan nan nan nan nan nan nan nan nan nan nan nan nan nan nan nan nan nan nan nan nan nan nan nan nan nan nan nan nan nan nan nan nan nan nan nan nan nan nan nan nan nan nan nan nan
35 34 34 38 40 40 40 38 37 34 37 37 38 37 35 31 30 30 33 34 34 35 37 39 39 39 37 nan nan nan 34 32 36 nan nan nan nan nan nan nan nan nan nan nan nan nan nan nan nan nan nan nan nan nan nan nan nan nan nan nan nan nan nan nan nan nan nan nan nan nan nan nan nan nan nan nan nan nan nan nan nan nan nan nan nan
36 33 36 38 40 40 39 36 36 36 36 38 40 38 36 34 31 32 34 35 36 36 37 39 38 38 37 37 nan nan 35 nan nan nan nan nan nan nan nan nan nan nan nan nan nan nan nan nan nan nan nan nan nan nan nan nan nan nan nan nan nan nan nan nan nan nan nan nan nan nan nan nan nan nan nan nan nan nan nan nan nan nan nan nan nan
35 35 37 36 37 39 38 36 39 35 37 41 41 39 38 36 32 34 36 36 37 38 39 39 38 36 37 36 34 35 33 37 nan 38 nan nan nan nan nan nan nan nan nan nan nan nan nan nan nan nan nan nan nan nan nan nan nan nan nan nan nan nan nan nan nan nan nan nan nan nan nan nan nan nan nan nan nan nan nan nan nan nan nan nan nan
Wind_Direction
333 333 333 331 324 321 319 317 320 318 318 320 317 315 313 312 307 306 306 303 303 305 307 309 306 305 307 306 306 303 300 297 293 285 281 286 291 287 283 282 285 287 288 nan nan nan nan nan nan nan nan nan nan nan nan nan nan nan nan nan nan nan nan nan nan nan nan nan nan nan nan nan nan nan nan nan nan nan nan nan nan nan nan nan nan
329 329 328 326 322 319 318 316 318 316 318 317 313 313 312 310 307 307 305 305 304 305 306 306 306 305 306 305 304 302 300 295 290 284 283 284 288 288 283 284 285 286 nan nan nan nan nan nan nan nan nan nan nan nan nan nan nan nan nan nan nan nan nan nan nan nan nan nan nan nan nan nan nan nan nan nan nan nan nan nan nan nan nan nan nan
326 327 325 323 321 320 319 316 318 318 319 315 312 313 309 307 309 306 305 304 304 302 308 302 302 304 304 306 303 299 295 292 289 284 285 289 290 288 nan nan nan nan nan nan nan nan nan nan nan nan nan nan nan nan nan nan nan nan nan nan nan nan nan nan nan nan nan nan nan nan nan nan nan nan nan nan nan nan nan nan nan nan nan nan nan
327 328 325 322 321 320 317 318 318 318 319 315 312 311 308 307 305 303 300 301 302 302 302 301 301 303 308 303 301 299 293 281 271 284 287 290 292 290 nan nan nan nan nan nan nan nan nan nan nan nan nan nan nan nan nan nan nan nan nan nan nan nan nan nan nan nan nan nan nan nan nan nan nan nan nan nan nan nan nan nan nan nan nan nan nan
329 329 325 322 319 319 317 317 318 319 317 315 312 308 306 305 306 304 304 303 301 302 304 301 306 304 304 301 301 298 294 293 303 296 292 291 289 nan nan nan nan nan nan nan nan nan nan nan nan nan nan nan nan nan nan nan nan nan nan nan nan nan nan nan nan nan nan nan nan nan nan nan nan nan nan nan nan nan nan nan nan nan nan nan nan
331 332 330 323 320 319 316 318 318 320 318 315 313 309 308 308 307 307 305 305 304 304 306 305 303 303 303 302 299 294 298 299 297 293 290 289 nan nan nan nan nan nan nan nan nan nan nan nan nan nan nan nan nan nan nan nan nan nan nan nan nan nan nan nan nan nan nan nan nan nan nan nan nan nan nan nan nan nan nan nan nan nan nan nan nan
335 334 332 327 324 322 321 319 319 323 320 316 312 308 308 309 308 310 305 306 305 306 307 304 305 307 304 301 295 297 291 293 295 295 291 289 291 284 nan nan nan nan nan nan nan nan nan nan nan nan nan nan nan nan nan nan nan nan nan nan nan nan nan nan nan nan nan nan nan nan nan nan nan nan nan nan nan nan nan nan nan nan nan nan nan
333 335 334 332 329 323 318 315 317 320 318 313 309 307 307 307 309 309 308 308 308 307 306 304 306 305 303 301 299 297 296 298 296 nan nan nan 288 nan nan nan nan nan nan nan nan nan nan nan nan nan nan nan nan nan nan nan nan nan nan nan nan nan nan nan nan nan nan nan nan nan nan nan nan nan nan nan nan nan nan nan nan nan nan nan nan
333 334 335 334 329 322 316 312 316 317 315 310 309 306 304 307 308 311 310 307 309 309 304 302 304 304 304 303 301 300 300 299 296 291 290 289 291 nan nan nan nan nan nan nan nan nan nan nan nan nan nan nan nan nan nan nan nan nan nan nan nan nan nan nan nan nan nan nan nan nan nan nan nan nan nan nan nan nan nan nan nan nan nan nan nan
334 333 334 334 328 322 314 313 316 315 314 310 307 304 303 306 308 310 311 310 309 308 305 303 303 303 304 303 299 298 298 297 295 296 nan 293 292 295 nan nan nan nan nan nan nan nan nan nan nan nan nan nan nan nan nan nan nan nan nan nan nan nan nan nan nan nan nan nan nan nan nan nan nan nan nan nan nan nan nan nan nan nan nan nan nan
336 332 330 333 329 322 314 314 313 313 312 313 307 304 305 306 309 310 311 311 308 308 304 303 304 304 303 302 298 297 298 298 300 299 nan nan 294 295 nan nan nan nan nan nan nan nan nan nan nan nan nan nan nan nan nan nan nan nan nan nan nan nan nan nan nan nan nan nan nan nan nan nan nan nan nan nan nan nan nan nan nan nan nan nan nan
334 330 330 330 327 322 316 315 314 311 312 312 306 304 309 310 311 313 312 309 305 305 305 304 300 299 nan 296 292 294 296 299 nan nan nan nan 299 nan nan nan nan nan nan nan nan nan nan nan nan nan nan nan nan nan nan nan nan nan nan nan nan nan nan nan nan nan nan nan nan nan nan nan nan nan nan nan nan nan nan nan nan nan nan nan nan
332 329 329 327 325 321 318 318 314 313 311 311 309 307 308 309 309 311 314 312 308 307 305 305 303 300 298 291 293 292 293 298 304 307 nan nan nan nan nan nan nan nan nan nan nan nan nan nan nan nan nan nan nan nan nan nan nan nan nan nan nan nan nan nan nan nan nan nan nan nan nan nan nan nan nan nan nan nan nan nan nan nan nan nan nan
331 328 328 327 324 322 320 318 317 312 310 309 311 309 309 309 309 311 312 313 310 310 307 307 308 305 305 302 297 296 299 303 310 nan nan nan nan nan nan nan nan nan nan nan nan nan nan nan nan nan nan nan nan nan nan nan nan nan nan nan nan nan nan nan nan nan nan nan nan nan nan nan nan nan nan nan nan nan nan nan nan nan nan nan nan
330 326 325 326 324 321 319 319 320 314 311 312 311 312 310 312 314 313 311 310 309 310 313 316 306 304 304 302 303 303 nan nan nan nan nan nan nan nan nan nan nan nan nan nan nan nan nan nan nan nan nan nan nan nan nan nan nan nan nan nan nan nan nan nan nan nan nan nan nan nan nan nan nan nan nan nan nan nan nan nan nan nan nan nan nan
330 327 325 324 322 320 317 319 319 316 312 312 313 313 311 311 314 314 312 310 311 312 314 315 307 307 307 305 299 303 nan nan nan nan nan nan nan nan nan nan nan nan nan nan nan nan nan nan nan nan nan nan nan nan nan nan nan nan nan nan nan nan nan nan nan nan nan nan nan nan nan nan nan nan nan nan nan nan nan nan nan nan nan nan nan
326 326 325 324 321 318 317 319 320 317 313 313 311 312 312 313 317 315 316 313 312 310 313 312 310 310 297 299 294 300 303 nan nan nan nan nan nan nan nan nan nan nan nan nan nan nan nan nan nan nan nan nan nan nan nan nan nan nan nan nan nan nan nan nan nan nan nan nan nan nan nan nan nan nan nan nan nan nan nan nan nan nan nan nan nan
323 324 326 323 319 317 318 319 319 317 316 314 309 309 313 314 316 315 317 316 312 311 311 308 308 304 297 292 278 278 280 290 nan nan nan nan nan nan nan nan nan nan nan nan nan nan nan nan nan nan nan nan nan nan nan nan nan nan nan nan nan nan nan nan nan nan nan nan nan nan nan nan nan nan nan nan nan nan nan nan nan nan nan nan nan
322 322 324 323 317 316 319 321 319 319 316 313 310 311 310 313 313 314 313 313 313 312 313 309 304 303 301 293 289 291 290 292 295 nan nan nan nan nan nan nan nan nan nan nan nan nan nan nan nan nan nan nan nan nan nan nan nan nan nan nan nan nan nan nan nan nan nan nan nan nan nan nan nan nan nan nan nan nan nan nan nan nan nan nan nan
321 322 323 322 316 315 320 322 322 321 317 314 311 311 308 310 313 315 312 311 313 313 312 309 309 306 303 298 293 292 293 298 294 291 288 nan nan nan nan nan nan nan nan nan nan nan nan nan nan nan nan nan nan nan nan nan nan nan nan nan nan nan nan nan nan nan nan nan nan nan nan nan nan nan nan nan nan nan nan nan nan nan nan nan nan
322 321 322 320 314 314 321 324 323 321 316 311 311 314 313 312 315 314 313 312 313 315 312 309 310 305 300 300 298 296 297 300 298 296 299 296 301 nan nan nan nan nan nan nan nan nan nan nan nan nan nan nan nan nan nan nan nan nan nan nan nan nan nan nan nan nan nan nan nan nan nan nan nan nan nan nan nan nan nan nan nan nan nan nan nan
318 321 320 319 315 316 322 326 323 319 313 309 311 313 313 315 315 315 313 314 312 314 314 309 306 303 302 298 300 300 300 297 299 302 306 309 303 nan nan nan nan nan nan nan nan nan nan nan nan nan nan nan nan nan nan nan nan nan nan nan nan nan nan nan nan nan nan nan nan nan nan nan nan nan nan nan nan nan nan nan nan nan nan nan nan
314 316 318 317 315 317 321 321 317 313 310 308 309 310 312 311 312 315 315 319 316 316 314 313 308 304 304 303 299 299 297 300 300 302 304 305 309 317 nan nan nan nan nan nan nan nan nan nan nan nan nan nan nan nan nan nan nan nan nan nan nan nan nan nan nan nan nan nan nan nan nan nan nan nan nan nan nan nan nan nan nan nan nan nan nan
313 313 315 317 313 315 321 317 313 312 310 307 307 310 310 309 310 312 314 318 317 315 313 312 315 305 304 304 303 299 298 301 300 299 303 308 308 314 nan nan nan nan nan nan nan nan nan nan nan nan nan nan nan nan nan nan nan nan nan nan nan nan nan nan nan nan nan nan nan nan nan nan nan nan nan nan nan nan nan nan nan nan nan nan nan
309 310 313 317 313 314 317 314 310 310 308 309 309 310 308 308 310 314 313 315 316 315 312 313 311 308 304 304 301 301 303 302 301 303 304 304 308 311 nan nan nan nan nan nan nan nan nan nan nan nan nan nan nan nan nan nan nan nan nan nan nan nan nan nan nan nan nan nan nan nan nan nan nan nan nan nan nan nan nan nan nan nan nan nan nan
308 310 311 315 314 312 312 312 311 308 308 309 308 309 309 308 311 313 316 315 315 317 317 316 312 311 304 301 302 301 302 301 301 303 305 305 311 nan nan nan nan nan nan nan nan nan nan nan nan nan nan nan nan nan nan nan nan nan nan nan nan nan nan nan nan nan nan nan nan nan nan nan nan nan nan nan nan nan nan nan nan nan nan nan nan
306 305 312 313 311 308 310 313 312 310 306 304 303 306 307 309 309 311 313 314 317 316 317 317 313 313 309 304 301 301 301 303 302 303 305 308 309 nan nan nan nan nan nan nan nan nan nan nan nan nan nan nan nan nan nan nan nan nan nan nan nan nan nan nan nan nan nan nan nan nan nan nan nan nan nan nan nan nan nan nan nan nan nan nan nan
303 304 310 310 306 308 310 314 313 311 307 304 303 303 305 310 309 309 312 307 312 319 319 318 317 315 310 306 303 304 303 307 309 308 309 nan nan nan nan nan nan nan nan nan nan nan nan nan nan nan nan nan nan nan nan nan nan nan nan nan nan nan nan nan nan nan nan nan nan nan nan nan nan nan nan nan nan nan nan nan nan nan nan nan nan
298 301 308 307 307 306 307 312 313 309 304 302 302 303 302 305 309 308 310 308 nan 314 315 315 nan 315 311 311 307 nan nan 305 nan nan nan nan nan nan nan nan nan nan nan nan nan nan nan nan nan nan nan nan nan nan nan nan nan nan nan nan nan nan nan nan nan nan nan nan nan nan nan nan nan nan nan nan nan nan nan nan nan nan nan nan nan
297 299 306 307 306 306 304 310 310 307 304 301 303 301 302 306 308 308 307 306 nan nan nan nan nan nan nan nan nan nan nan nan nan nan nan nan nan nan nan nan nan nan nan nan nan nan nan nan nan nan nan nan nan nan nan nan nan nan nan nan nan nan nan nan nan nan nan nan nan nan nan nan nan nan nan nan nan nan nan nan nan nan nan nan nan
297 298 305 308 304 302 303 307 308 310 304 301 299 298 304 304 305 305 303 306 nan nan nan nan nan nan nan nan nan nan nan nan nan nan nan nan nan nan nan nan nan nan nan nan nan nan nan nan nan nan nan nan nan nan nan nan nan nan nan nan nan nan nan nan nan nan nan nan nan nan nan nan nan nan nan nan nan nan nan nan nan nan nan nan nan
296 298 306 307 304 298 300 306 311 307 303 300 296 298 303 303 304 304 304 308 nan nan nan nan nan nan nan nan nan nan nan nan nan nan nan nan nan nan nan nan nan nan nan nan nan nan nan nan nan nan nan nan nan nan nan nan nan nan nan nan nan nan nan nan nan nan nan nan nan nan nan nan nan nan nan nan nan nan nan nan nan nan nan nan nan
298 299 303 301 299 293 296 300 306 303 303 296 294 297 302 303 303 305 303 308 nan nan nan nan nan nan nan nan nan nan nan nan nan nan nan nan nan nan nan nan nan nan nan nan nan nan nan nan nan nan nan nan nan nan nan nan nan nan nan nan nan nan nan nan nan nan nan nan nan nan nan nan nan nan nan nan nan nan nan nan nan nan nan nan nan
298 298 298 295 293 293 294 299 304 304 299 295 295 297 302 302 303 299 301 nan nan nan nan nan nan nan nan nan nan nan nan nan nan nan nan nan nan nan nan nan nan nan nan nan nan nan nan nan nan nan nan nan nan nan nan nan nan nan nan nan nan nan nan nan nan nan nan nan nan nan nan nan nan nan nan nan nan nan nan nan nan nan nan nan nan
294 293 296 295 292 291 291 296 302 302 298 294 294 299 302 305 305 301 301 nan nan nan nan nan nan nan nan nan nan nan nan nan nan nan nan nan nan nan nan nan nan nan nan nan nan nan nan nan nan nan nan nan nan nan nan nan nan nan nan nan nan nan nan nan nan nan nan nan nan nan nan nan nan nan nan nan nan nan nan nan nan nan nan nan nan
290 292 296 294 290 289 289 294 298 298 297 292 295 300 304 305 304 304 nan nan nan nan nan nan nan nan nan nan nan nan nan nan nan nan nan nan nan nan nan nan nan nan nan nan nan nan nan nan nan nan nan nan nan nan nan nan nan nan nan nan nan nan nan nan nan nan nan nan nan nan nan nan nan nan nan nan nan nan nan nan nan nan nan nan nan
290 292 292 291 288 287 285 291 296 298 297 293 296 300 299 301 304 303 nan nan nan nan nan nan nan nan nan nan nan nan nan nan nan nan nan nan nan nan nan nan nan nan nan nan nan nan nan nan nan nan nan nan nan nan nan nan nan nan nan nan nan nan nan nan nan nan nan nan nan nan nan nan nan nan nan nan nan nan nan nan nan nan nan nan nan
290 291 291 287 284 284 284 289 295 297 296 292 295 299 300 301 303 303 nan nan nan nan nan nan nan nan nan nan nan nan nan nan nan nan nan nan nan nan nan nan nan nan nan nan nan nan nan nan nan nan nan nan nan nan nan nan nan nan nan nan nan nan nan nan nan nan nan nan nan nan nan nan nan nan nan nan nan nan nan nan nan nan nan nan nan
290 289 288 286 281 281 282 285 292 296 295 293 294 296 299 303 306 305 305 nan nan nan nan nan nan nan nan nan nan nan nan nan nan nan nan nan nan nan nan nan nan nan nan nan nan nan nan nan nan nan nan nan nan nan nan nan nan nan nan nan nan nan nan nan nan nan nan nan nan nan nan nan nan nan nan nan nan nan nan nan nan nan nan nan nan
290 289 286 285 279 278 279 283 289 293 291 288 290 292 296 303 305 306 304 nan nan nan nan nan nan nan nan nan nan nan nan nan nan nan nan nan nan nan nan nan nan nan nan nan nan nan nan nan nan nan nan nan nan nan nan nan nan nan nan nan nan nan nan nan nan nan nan nan nan nan nan nan nan nan nan nan nan nan nan nan nan nan nan nan nan
285 286 284 283 280 280 279 282 288 290 285 283 283 288 295 304 306 305 303 302 302 nan nan nan nan nan nan nan nan nan nan nan nan nan nan nan nan nan nan nan nan nan nan nan nan nan nan nan nan nan nan nan nan nan nan nan nan nan nan nan nan nan nan nan nan nan nan nan nan nan nan nan nan nan nan nan nan nan nan nan nan nan nan nan nan
286 283 283 282 281 281 281 282 286 284 279 275 280 294 297 301 304 300 299 299 300 nan nan nan nan nan nan nan nan nan nan nan nan nan nan nan nan nan nan nan nan nan nan nan nan nan nan nan nan nan nan nan nan nan nan nan nan nan nan nan nan nan nan nan nan nan nan nan nan nan nan nan nan nan nan nan nan nan nan nan nan nan nan nan nan
287 283 282 282 280 280 280 281 283 281 276 272 287 292 298 302 302 300 299 298 297 296 nan nan nan nan nan nan nan nan nan nan nan nan nan nan nan nan nan nan nan nan nan nan nan nan nan nan nan nan nan nan nan nan nan nan nan nan nan nan nan nan nan nan nan nan nan nan nan nan nan nan nan nan nan nan nan nan nan nan nan nan nan nan nan
286 282 282 282 279 277 274 278 279 280 278 275 288 291 293 297 299 298 298 296 295 nan nan nan nan nan nan nan nan nan nan nan nan nan nan nan nan nan nan nan nan nan nan nan nan nan nan nan nan nan nan nan nan nan nan nan nan nan nan nan nan nan nan nan nan nan nan nan nan nan nan nan nan nan nan nan nan nan nan nan nan nan nan nan nan
280 284 281 279 277 276 274 276 277 278 273 278 288 291 291 297 299 300 298 297 297 nan nan nan nan nan nan nan nan nan nan nan nan nan nan nan nan nan nan nan nan nan nan nan nan nan nan nan nan nan nan nan nan nan nan nan nan nan nan nan nan nan nan nan nan nan nan nan nan nan nan nan nan nan nan nan nan nan nan nan nan nan nan nan nan
280 281 278 278 275 275 274 275 276 278 275 278 286 289 291 297 299 300 298 300 299 300 nan nan nan nan nan nan nan nan nan nan nan nan nan nan nan nan nan nan nan nan nan nan nan nan nan nan nan nan nan nan nan nan nan nan nan nan nan nan nan nan nan nan nan nan nan nan nan nan nan nan nan nan nan nan nan nan nan nan nan nan nan nan nan
278 279 277 275 272 271 272 270 272 276 271 283 286 290 292 297 301 300 296 296 299 301 301 299 296 295 nan nan nan nan nan 310 310 313 nan nan nan nan nan nan nan nan nan nan nan nan nan nan nan nan nan nan nan nan nan nan nan nan nan nan nan nan nan nan nan nan nan nan nan nan nan nan nan nan nan nan nan nan nan nan nan nan nan nan nan
270 272 272 271 273 273 272 270 270 275 272 288 287 291 293 296 300 293 293 296 299 301 301 300 296 293 nan nan nan nan 305 309 307 nan nan nan nan nan nan nan nan nan nan nan nan nan nan nan nan nan nan nan nan nan nan nan nan nan nan nan nan nan nan nan nan nan nan nan nan nan nan nan nan nan nan nan nan nan nan nan nan nan nan nan nan
267 271 274 272 270 271 274 273 273 276 273 286 289 289 290 295 292 290 291 296 299 301 302 302 299 293 290 nan nan nan 303 306 300 nan nan nan nan nan nan nan nan nan nan nan nan nan nan nan nan nan nan nan nan nan nan nan nan nan nan nan nan nan nan nan nan nan nan nan nan nan nan nan nan nan nan nan nan nan nan nan nan nan nan nan nan
267 271 271 269 268 271 275 277 278 278 275 282 288 289 292 295 295 291 291 296 299 301 303 305 301 292 288 293 nan nan 301 nan nan nan nan nan nan nan nan nan nan nan nan nan nan nan nan nan nan nan nan nan nan nan nan nan nan nan nan nan nan nan nan nan nan nan nan nan nan nan nan nan nan nan nan nan nan nan nan nan nan nan nan nan nan
266 268 269 272 273 272 275 277 278 283 276 283 293 294 293 297 295 288 292 295 299 301 303 306 305 293 285 285 293 293 298 294 nan 308 nan nan nan nan nan nan nan nan nan nan nan nan nan nan nan nan nan nan nan nan nan nan nan nan nan nan nan nan nan nan nan nan nan nan nan nan nan nan nan nan nan nan nan nan nan nan nan nan nan nan nan